Year,Month,Day,Hour,Minute,Value (Times are PST for temperature in C)
2018,07,02,00,00,11.50
2018,07,02,00,01,11.50
2018,07,02,00,02,11.50
2018,07,02,00,03,11.50
2018,07,02,00,04,11.50
2018,07,02,00,05,11.50
2018,07,02,00,06,11.50
2018,07,02,00,07,11.50
2018,07,02,00,08,11.50
2018,07,02,00,09,11.40
2018,07,02,00,10,11.40
2018,07,02,00,11,11.40
2018,07,02,00,12,11.40
2018,07,02,00,13,11.40
2018,07,02,00,14,11.30
2018,07,02,00,15,11.30
2018,07,02,00,16,11.30
2018,07,02,00,17,11.30
2018,07,02,00,18,11.30
2018,07,02,00,19,11.30
2018,07,02,00,20,11.30
2018,07,02,00,21,11.30
2018,07,02,00,22,11.30
2018,07,02,00,23,11.30
2018,07,02,00,24,11.20
2018,07,02,00,25,11.20
2018,07,02,00,26,11.20
2018,07,02,00,27,11.20
2018,07,02,00,28,11.20
2018,07,02,00,29,11.20
2018,07,02,00,30,11.20
2018,07,02,00,31,11.20
2018,07,02,00,32,11.10
2018,07,02,00,33,11.10
2018,07,02,00,34,11.10
2018,07,02,00,35,11.10
2018,07,02,00,36,11.10
2018,07,02,00,37,11.10
2018,07,02,00,38,11.10
2018,07,02,00,39,11.10
2018,07,02,00,40,11.10
2018,07,02,00,41,11.10
2018,07,02,00,42,11.10
2018,07,02,00,43,11.10
2018,07,02,00,44,11.10
2018,07,02,00,45,11.10
2018,07,02,00,46,11.00
2018,07,02,00,47,11.00
2018,07,02,00,48,11.00
2018,07,02,00,49,11.00
2018,07,02,00,50,11.00
2018,07,02,00,51,11.10
2018,07,02,00,52,11.10
2018,07,02,00,53,11.10
2018,07,02,00,54,11.10
2018,07,02,00,55,11.10
2018,07,02,00,56,11.10
2018,07,02,00,57,11.10
2018,07,02,00,58,11.10
2018,07,02,00,59,11.10
2018,07,02,01,00,11.10
2018,07,02,01,01,11.10
2018,07,02,01,02,11.10
2018,07,02,01,03,11.10
2018,07,02,01,04,11.20
2018,07,02,01,05,11.20
2018,07,02,01,06,11.20
2018,07,02,01,07,11.10
2018,07,02,01,08,11.10
2018,07,02,01,09,11.10
2018,07,02,01,10,11.10
2018,07,02,01,11,11.10
2018,07,02,01,12,11.10
2018,07,02,01,13,11.00
2018,07,02,01,14,11.00
2018,07,02,01,15,11.00
2018,07,02,01,16,11.00
2018,07,02,01,17,11.00
2018,07,02,01,18,11.00
2018,07,02,01,19,11.00
2018,07,02,01,20,11.00
2018,07,02,01,21,11.00
2018,07,02,01,22,11.00
2018,07,02,01,23,11.10
2018,07,02,01,24,11.10
2018,07,02,01,25,11.20
2018,07,02,01,26,11.20
2018,07,02,01,27,11.20
2018,07,02,01,28,11.20
2018,07,02,01,29,11.30
2018,07,02,01,30,11.30
2018,07,02,01,31,11.30
2018,07,02,01,32,11.30
2018,07,02,01,33,11.30
2018,07,02,01,34,11.30
2018,07,02,01,35,11.30
2018,07,02,01,36,11.30
2018,07,02,01,37,11.30
2018,07,02,01,38,11.30
2018,07,02,01,39,11.30
2018,07,02,01,40,11.20
2018,07,02,01,41,11.20
2018,07,02,01,42,11.20
2018,07,02,01,43,11.20
2018,07,02,01,44,11.20
2018,07,02,01,45,11.20
2018,07,02,01,46,11.10
2018,07,02,01,47,11.10
2018,07,02,01,48,11.10
2018,07,02,01,49,11.10
2018,07,02,01,50,11.10
2018,07,02,01,51,11.10
2018,07,02,01,52,11.10
2018,07,02,01,53,11.00
2018,07,02,01,54,10.90
2018,07,02,01,55,10.90
2018,07,02,01,56,10.80
2018,07,02,01,57,10.80
2018,07,02,01,58,10.80
2018,07,02,01,59,10.80
2018,07,02,02,00,10.80
2018,07,02,02,01,10.80
2018,07,02,02,02,10.70
2018,07,02,02,03,10.70
2018,07,02,02,04,10.60
2018,07,02,02,05,10.60
2018,07,02,02,06,10.60
2018,07,02,02,07,10.50
2018,07,02,02,08,10.50
2018,07,02,02,09,10.40
2018,07,02,02,10,10.40
2018,07,02,02,11,10.40
2018,07,02,02,12,10.40
2018,07,02,02,13,10.40
2018,07,02,02,14,10.40
2018,07,02,02,15,10.40
2018,07,02,02,16,10.40
2018,07,02,02,17,10.30
2018,07,02,02,18,10.30
2018,07,02,02,19,10.30
2018,07,02,02,20,10.30
2018,07,02,02,21,10.30
2018,07,02,02,22,10.30
2018,07,02,02,23,10.30
2018,07,02,02,24,10.30
2018,07,02,02,25,10.20
2018,07,02,02,26,10.20
2018,07,02,02,27,10.20
2018,07,02,02,28,10.20
2018,07,02,02,29,10.20
2018,07,02,02,30,10.20
2018,07,02,02,31,10.10
2018,07,02,02,32,10.10
2018,07,02,02,33,10.10
2018,07,02,02,34,10.10
2018,07,02,02,35,10.00
2018,07,02,02,36,10.00
2018,07,02,02,37,9.90
2018,07,02,02,38,9.90
2018,07,02,02,39,9.90
2018,07,02,02,40,9.90
2018,07,02,02,41,9.90
2018,07,02,02,42,9.90
2018,07,02,02,43,9.80
2018,07,02,02,44,9.80
2018,07,02,02,45,9.80
2018,07,02,02,46,9.80
2018,07,02,02,47,9.80
2018,07,02,02,48,9.80
2018,07,02,02,49,9.90
2018,07,02,02,50,9.90
2018,07,02,02,51,9.90
2018,07,02,02,52,9.90
2018,07,02,02,53,9.90
2018,07,02,02,54,9.90
2018,07,02,02,55,9.80
2018,07,02,02,56,9.80
2018,07,02,02,57,9.90
2018,07,02,02,58,9.80
2018,07,02,02,59,9.80
2018,07,02,03,00,9.80
2018,07,02,03,01,9.80
2018,07,02,03,02,9.70
2018,07,02,03,03,9.70
2018,07,02,03,04,9.70
2018,07,02,03,05,9.60
2018,07,02,03,06,9.60
2018,07,02,03,07,9.60
2018,07,02,03,08,9.60
2018,07,02,03,09,9.60
2018,07,02,03,10,9.60
2018,07,02,03,11,9.60
2018,07,02,03,12,9.50
2018,07,02,03,13,9.50
2018,07,02,03,14,9.50
2018,07,02,03,15,9.40
2018,07,02,03,16,9.40
2018,07,02,03,17,9.40
2018,07,02,03,18,9.40
2018,07,02,03,19,9.40
2018,07,02,03,20,9.40
2018,07,02,03,21,9.40
2018,07,02,03,22,9.40
2018,07,02,03,23,9.40
2018,07,02,03,24,9.40
2018,07,02,03,25,9.40
2018,07,02,03,26,9.30
2018,07,02,03,27,9.30
2018,07,02,03,28,9.30
2018,07,02,03,29,9.30
2018,07,02,03,30,9.30
2018,07,02,03,31,9.20
2018,07,02,03,32,9.20
2018,07,02,03,33,9.20
2018,07,02,03,34,9.20
2018,07,02,03,35,9.20
2018,07,02,03,36,9.30
2018,07,02,03,37,9.30
2018,07,02,03,38,9.40
2018,07,02,03,39,9.40
2018,07,02,03,40,9.40
2018,07,02,03,41,9.40
2018,07,02,03,42,9.40
2018,07,02,03,43,9.40
2018,07,02,03,44,9.40
2018,07,02,03,45,9.40
2018,07,02,03,46,9.40
2018,07,02,03,47,9.40
2018,07,02,03,48,9.30
2018,07,02,03,49,9.40
2018,07,02,03,50,9.40
2018,07,02,03,51,9.40
2018,07,02,03,52,9.40
2018,07,02,03,53,9.40
2018,07,02,03,54,9.40
2018,07,02,03,55,9.40
2018,07,02,03,56,9.40
2018,07,02,03,57,9.40
2018,07,02,03,58,9.50
2018,07,02,03,59,9.40
2018,07,02,04,00,9.40
2018,07,02,04,01,9.40
2018,07,02,04,02,9.40
2018,07,02,04,03,9.40
2018,07,02,04,04,9.40
2018,07,02,04,05,9.40
2018,07,02,04,06,9.50
2018,07,02,04,07,9.50
2018,07,02,04,08,9.50
2018,07,02,04,09,9.60
2018,07,02,04,10,9.60
2018,07,02,04,11,9.60
2018,07,02,04,12,9.60
2018,07,02,04,13,9.70
2018,07,02,04,14,9.70
2018,07,02,04,15,9.70
2018,07,02,04,16,9.70
2018,07,02,04,17,9.80
2018,07,02,04,18,9.80
2018,07,02,04,19,9.80
2018,07,02,04,20,9.80
2018,07,02,04,21,9.80
2018,07,02,04,22,9.80
2018,07,02,04,23,9.90
2018,07,02,04,24,9.90
2018,07,02,04,25,9.90
2018,07,02,04,26,9.90
2018,07,02,04,27,9.90
2018,07,02,04,28,9.90
2018,07,02,04,29,10.00
2018,07,02,04,30,10.00
2018,07,02,04,31,10.00
2018,07,02,04,32,10.00
2018,07,02,04,33,10.00
2018,07,02,04,34,10.00
2018,07,02,04,35,10.00
2018,07,02,04,36,10.00
2018,07,02,04,37,10.00
2018,07,02,04,38,10.00
2018,07,02,04,39,10.00
2018,07,02,04,40,10.00
2018,07,02,04,41,10.00
2018,07,02,04,42,10.00
2018,07,02,04,43,10.00
2018,07,02,04,44,10.00
2018,07,02,04,45,10.00
2018,07,02,04,46,10.00
2018,07,02,04,47,10.00
2018,07,02,04,48,10.00
2018,07,02,04,49,10.00
2018,07,02,04,50,9.90
2018,07,02,04,51,9.90
2018,07,02,04,52,9.90
2018,07,02,04,53,9.90
2018,07,02,04,54,9.90
2018,07,02,04,55,9.80
2018,07,02,04,56,9.80
2018,07,02,04,57,9.80
2018,07,02,04,58,9.80
2018,07,02,04,59,9.80
2018,07,02,05,00,9.80
2018,07,02,05,01,9.80
2018,07,02,05,02,9.70
2018,07,02,05,03,9.70
2018,07,02,05,04,9.70
2018,07,02,05,05,9.70
2018,07,02,05,06,9.70
2018,07,02,05,07,9.70
2018,07,02,05,08,9.70
2018,07,02,05,09,9.70
2018,07,02,05,10,9.70
2018,07,02,05,11,9.70
2018,07,02,05,12,9.70
2018,07,02,05,13,9.70
2018,07,02,05,14,9.70
2018,07,02,05,15,9.70
2018,07,02,05,16,9.70
2018,07,02,05,17,9.70
2018,07,02,05,18,9.70
2018,07,02,05,19,9.70
2018,07,02,05,20,9.70
2018,07,02,05,21,9.70
2018,07,02,05,22,9.70
2018,07,02,05,23,9.70
2018,07,02,05,24,9.70
2018,07,02,05,25,9.70
2018,07,02,05,26,9.70
2018,07,02,05,27,9.70
2018,07,02,05,28,9.70
2018,07,02,05,29,9.60
2018,07,02,05,30,9.60
2018,07,02,05,31,9.60
2018,07,02,05,32,9.60
2018,07,02,05,33,9.60
2018,07,02,05,34,9.60
2018,07,02,05,35,9.60
2018,07,02,05,36,9.60
2018,07,02,05,37,9.60
2018,07,02,05,38,9.60
2018,07,02,05,39,9.60
2018,07,02,05,40,9.60
2018,07,02,05,41,9.60
2018,07,02,05,42,9.60
2018,07,02,05,43,9.60
2018,07,02,05,44,9.60
2018,07,02,05,45,9.60
2018,07,02,05,46,9.60
2018,07,02,05,47,9.60
2018,07,02,05,48,9.60
2018,07,02,05,49,9.60
2018,07,02,05,50,9.60
2018,07,02,05,51,9.70
2018,07,02,05,52,9.70
2018,07,02,05,53,9.70
2018,07,02,05,54,9.70
2018,07,02,05,55,9.70
2018,07,02,05,56,9.70
2018,07,02,05,57,9.70
2018,07,02,05,58,9.70
2018,07,02,05,59,9.70
2018,07,02,06,00,9.70
2018,07,02,06,01,9.70
2018,07,02,06,02,9.70
2018,07,02,06,03,9.80
2018,07,02,06,04,9.80
2018,07,02,06,05,9.80
2018,07,02,06,06,9.80
2018,07,02,06,07,9.80
2018,07,02,06,08,9.80
2018,07,02,06,09,9.80
2018,07,02,06,10,9.90
2018,07,02,06,11,9.90
2018,07,02,06,12,9.90
2018,07,02,06,13,9.90
2018,07,02,06,14,10.00
2018,07,02,06,15,10.10
2018,07,02,06,16,10.10
2018,07,02,06,17,10.20
2018,07,02,06,18,10.20
2018,07,02,06,19,10.20
2018,07,02,06,20,10.20
2018,07,02,06,21,10.30
2018,07,02,06,22,10.30
2018,07,02,06,23,10.30
2018,07,02,06,24,10.30
2018,07,02,06,25,10.30
2018,07,02,06,26,10.30
2018,07,02,06,27,10.40
2018,07,02,06,28,10.30
2018,07,02,06,29,10.40
2018,07,02,06,30,10.40
2018,07,02,06,31,10.40
2018,07,02,06,32,10.40
2018,07,02,06,33,10.40
2018,07,02,06,34,10.40
2018,07,02,06,35,10.40
2018,07,02,06,36,10.50
2018,07,02,06,37,10.50
2018,07,02,06,38,10.50
2018,07,02,06,39,10.50
2018,07,02,06,40,10.50
2018,07,02,06,41,10.50
2018,07,02,06,42,10.50
2018,07,02,06,43,10.50
2018,07,02,06,44,10.60
2018,07,02,06,45,10.60
2018,07,02,06,46,10.70
2018,07,02,06,47,10.70
2018,07,02,06,48,10.70
2018,07,02,06,49,10.80
2018,07,02,06,50,10.80
2018,07,02,06,51,10.90
2018,07,02,06,52,11.00
2018,07,02,06,53,11.00
2018,07,02,06,54,11.20
2018,07,02,06,55,11.20
2018,07,02,06,56,11.30
2018,07,02,06,57,11.40
2018,07,02,06,58,11.40
2018,07,02,06,59,11.50
2018,07,02,07,00,11.60
2018,07,02,07,01,11.60
2018,07,02,07,02,11.70
2018,07,02,07,03,11.70
2018,07,02,07,04,11.70
2018,07,02,07,05,11.80
2018,07,02,07,06,11.80
2018,07,02,07,07,11.80
2018,07,02,07,08,11.90
2018,07,02,07,09,11.90
2018,07,02,07,10,11.90
2018,07,02,07,11,12.00
2018,07,02,07,12,12.00
2018,07,02,07,13,12.10
2018,07,02,07,14,12.10
2018,07,02,07,15,12.10
2018,07,02,07,16,12.10
2018,07,02,07,17,12.20
2018,07,02,07,18,12.20
2018,07,02,07,19,12.20
2018,07,02,07,20,12.20
2018,07,02,07,21,12.30
2018,07,02,07,22,12.30
2018,07,02,07,23,12.30
2018,07,02,07,24,12.40
2018,07,02,07,25,12.40
2018,07,02,07,26,12.50
2018,07,02,07,27,12.50
2018,07,02,07,28,12.50
2018,07,02,07,29,12.60
2018,07,02,07,30,12.60
2018,07,02,07,31,12.60
2018,07,02,07,32,12.60
2018,07,02,07,33,12.60
2018,07,02,07,34,12.60
2018,07,02,07,35,12.70
2018,07,02,07,36,12.70
2018,07,02,07,37,12.70
2018,07,02,07,38,12.80
2018,07,02,07,39,12.80
2018,07,02,07,40,12.90
2018,07,02,07,41,12.90
2018,07,02,07,42,12.90
2018,07,02,07,43,13.00
2018,07,02,07,44,13.00
2018,07,02,07,45,13.10
2018,07,02,07,46,13.10
2018,07,02,07,47,13.10
2018,07,02,07,48,13.20
2018,07,02,07,49,13.10
2018,07,02,07,50,13.10
2018,07,02,07,51,13.10
2018,07,02,07,52,13.20
2018,07,02,07,53,13.20
2018,07,02,07,54,13.20
2018,07,02,07,55,13.30
2018,07,02,07,56,13.30
2018,07,02,07,57,13.30
2018,07,02,07,58,13.30
2018,07,02,07,59,13.40
2018,07,02,08,00,13.40
2018,07,02,08,01,13.40
2018,07,02,08,02,13.40
2018,07,02,08,03,13.50
2018,07,02,08,04,13.50
2018,07,02,08,05,13.60
2018,07,02,08,06,13.60
2018,07,02,08,07,13.60
2018,07,02,08,08,13.60
2018,07,02,08,09,13.60
2018,07,02,08,10,13.70
2018,07,02,08,11,13.70
2018,07,02,08,12,13.70
2018,07,02,08,13,13.70
2018,07,02,08,14,13.70
2018,07,02,08,15,13.70
2018,07,02,08,16,13.80
2018,07,02,08,17,13.80
2018,07,02,08,18,13.80
2018,07,02,08,19,13.90
2018,07,02,08,20,13.90
2018,07,02,08,21,13.90
2018,07,02,08,22,13.90
2018,07,02,08,23,13.90
2018,07,02,08,24,13.90
2018,07,02,08,25,13.90
2018,07,02,08,26,13.90
2018,07,02,08,27,14.00
2018,07,02,08,28,14.00
2018,07,02,08,29,14.00
2018,07,02,08,30,14.10
2018,07,02,08,31,14.10
2018,07,02,08,32,14.10
2018,07,02,08,33,14.10
2018,07,02,08,34,14.10
2018,07,02,08,35,14.20
2018,07,02,08,36,14.20
2018,07,02,08,37,14.20
2018,07,02,08,38,14.20
2018,07,02,08,39,14.20
2018,07,02,08,40,14.20
2018,07,02,08,41,14.20
2018,07,02,08,42,14.30
2018,07,02,08,43,14.30
2018,07,02,08,44,14.30
2018,07,02,08,45,14.30
2018,07,02,08,46,14.30
2018,07,02,08,47,14.40
2018,07,02,08,48,14.40
2018,07,02,08,49,14.40
2018,07,02,08,50,14.40
2018,07,02,08,51,14.40
2018,07,02,08,52,14.40
2018,07,02,08,53,14.50
2018,07,02,08,54,14.60
2018,07,02,08,55,14.60
2018,07,02,08,56,14.70
2018,07,02,08,57,14.70
2018,07,02,08,58,14.80
2018,07,02,08,59,14.80
2018,07,02,09,00,14.80
2018,07,02,09,01,14.80
2018,07,02,09,02,14.80
2018,07,02,09,03,14.80
2018,07,02,09,04,14.70
2018,07,02,09,05,14.80
2018,07,02,09,06,14.80
2018,07,02,09,07,14.80
2018,07,02,09,08,14.80
2018,07,02,09,09,14.80
2018,07,02,09,10,14.80
2018,07,02,09,11,14.80
2018,07,02,09,12,14.80
2018,07,02,09,13,14.80
2018,07,02,09,14,14.80
2018,07,02,09,15,14.90
2018,07,02,09,16,14.90
2018,07,02,09,17,14.90
2018,07,02,09,18,14.90
2018,07,02,09,19,14.90
2018,07,02,09,20,14.90
2018,07,02,09,21,14.90
2018,07,02,09,22,15.00
2018,07,02,09,23,15.00
2018,07,02,09,24,15.00
2018,07,02,09,25,15.00
2018,07,02,09,26,15.00
2018,07,02,09,27,15.00
2018,07,02,09,28,15.00
2018,07,02,09,29,15.00
2018,07,02,09,30,15.00
2018,07,02,09,31,15.00
2018,07,02,09,32,15.10
2018,07,02,09,33,15.10
2018,07,02,09,34,15.20
2018,07,02,09,35,15.20
2018,07,02,09,36,15.20
2018,07,02,09,37,15.30
2018,07,02,09,38,15.30
2018,07,02,09,39,15.30
2018,07,02,09,40,15.30
2018,07,02,09,41,15.30
2018,07,02,09,42,15.30
2018,07,02,09,43,15.30
2018,07,02,09,44,15.40
2018,07,02,09,45,15.40
2018,07,02,09,46,15.40
2018,07,02,09,47,15.40
2018,07,02,09,48,15.40
2018,07,02,09,49,15.40
2018,07,02,09,50,15.40
2018,07,02,09,51,15.40
2018,07,02,09,52,15.40
2018,07,02,09,53,15.30
2018,07,02,09,54,15.40
2018,07,02,09,55,15.40
2018,07,02,09,56,15.40
2018,07,02,09,57,15.40
2018,07,02,09,58,15.50
2018,07,02,09,59,15.60
2018,07,02,10,00,15.70
2018,07,02,10,01,15.70
2018,07,02,10,02,15.80
2018,07,02,10,03,15.80
2018,07,02,10,04,15.80
2018,07,02,10,05,15.70
2018,07,02,10,06,15.70
2018,07,02,10,07,15.80
2018,07,02,10,08,15.80
2018,07,02,10,09,15.80
2018,07,02,10,10,15.80
2018,07,02,10,11,15.80
2018,07,02,10,12,15.70
2018,07,02,10,13,15.60
2018,07,02,10,14,15.60
2018,07,02,10,15,15.60
2018,07,02,10,16,15.60
2018,07,02,10,17,15.60
2018,07,02,10,18,15.60
2018,07,02,10,19,15.60
2018,07,02,10,20,15.70
2018,07,02,10,21,15.70
2018,07,02,10,22,15.70
2018,07,02,10,23,15.60
2018,07,02,10,24,15.70
2018,07,02,10,25,15.70
2018,07,02,10,26,15.70
2018,07,02,10,27,15.80
2018,07,02,10,28,15.80
2018,07,02,10,29,15.80
2018,07,02,10,30,15.80
2018,07,02,10,31,15.80
2018,07,02,10,32,15.90
2018,07,02,10,33,15.90
2018,07,02,10,34,15.90
2018,07,02,10,35,15.90
2018,07,02,10,36,15.90
2018,07,02,10,37,15.90
2018,07,02,10,38,16.00
2018,07,02,10,39,16.10
2018,07,02,10,40,16.20
2018,07,02,10,41,16.30
2018,07,02,10,42,16.30
2018,07,02,10,43,16.30
2018,07,02,10,44,16.30
2018,07,02,10,45,16.30
2018,07,02,10,46,16.30
2018,07,02,10,47,16.30
2018,07,02,10,48,16.20
2018,07,02,10,49,16.20
2018,07,02,10,50,16.20
2018,07,02,10,51,16.30
2018,07,02,10,52,16.40
2018,07,02,10,53,16.40
2018,07,02,10,54,16.40
2018,07,02,10,55,16.50
2018,07,02,10,56,16.50
2018,07,02,10,57,16.60
2018,07,02,10,58,16.60
2018,07,02,10,59,16.60
2018,07,02,11,00,16.50
2018,07,02,11,01,16.50
2018,07,02,11,02,16.50
2018,07,02,11,03,16.40
2018,07,02,11,04,16.50
2018,07,02,11,05,16.60
2018,07,02,11,06,16.50
2018,07,02,11,07,16.60
2018,07,02,11,08,16.50
2018,07,02,11,09,16.40
2018,07,02,11,10,16.40
2018,07,02,11,11,16.40
2018,07,02,11,12,16.40
2018,07,02,11,13,16.40
2018,07,02,11,14,16.40
2018,07,02,11,15,16.40
2018,07,02,11,16,16.40
2018,07,02,11,17,16.40
2018,07,02,11,18,16.40
2018,07,02,11,19,16.30
2018,07,02,11,20,16.30
2018,07,02,11,21,16.40
2018,07,02,11,22,16.40
2018,07,02,11,23,16.40
2018,07,02,11,24,16.40
2018,07,02,11,25,16.30
2018,07,02,11,26,16.30
2018,07,02,11,27,16.40
2018,07,02,11,28,16.40
2018,07,02,11,29,16.50
2018,07,02,11,30,16.60
2018,07,02,11,31,16.60
2018,07,02,11,32,16.60
2018,07,02,11,33,16.70
2018,07,02,11,34,16.70
2018,07,02,11,35,16.60
2018,07,02,11,36,16.70
2018,07,02,11,37,16.70
2018,07,02,11,38,16.80
2018,07,02,11,39,16.80
2018,07,02,11,40,16.80
2018,07,02,11,41,16.80
2018,07,02,11,42,16.80
2018,07,02,11,43,16.80
2018,07,02,11,44,16.90
2018,07,02,11,45,17.00
2018,07,02,11,46,17.10
2018,07,02,11,47,17.20
2018,07,02,11,48,17.20
2018,07,02,11,49,17.20
2018,07,02,11,50,17.30
2018,07,02,11,51,17.20
2018,07,02,11,52,17.20
2018,07,02,11,53,17.30
2018,07,02,11,54,17.30
2018,07,02,11,55,17.20
2018,07,02,11,56,17.10
2018,07,02,11,57,17.10
2018,07,02,11,58,17.10
2018,07,02,11,59,17.00
2018,07,02,12,00,17.00
2018,07,02,12,01,17.00
2018,07,02,12,02,17.10
2018,07,02,12,03,17.10
2018,07,02,12,04,17.10
2018,07,02,12,05,17.10
2018,07,02,12,06,17.10
2018,07,02,12,07,17.00
2018,07,02,12,08,16.90
2018,07,02,12,09,16.90
2018,07,02,12,10,16.80
2018,07,02,12,11,16.90
2018,07,02,12,12,16.80
2018,07,02,12,13,16.80
2018,07,02,12,14,16.80
2018,07,02,12,15,16.80
2018,07,02,12,16,16.90
2018,07,02,12,17,16.90
2018,07,02,12,18,16.90
2018,07,02,12,19,16.90
2018,07,02,12,20,16.90
2018,07,02,12,21,17.00
2018,07,02,12,22,17.00
2018,07,02,12,23,16.90
2018,07,02,12,24,16.90
2018,07,02,12,25,16.90
2018,07,02,12,26,16.90
2018,07,02,12,27,17.00
2018,07,02,12,28,17.00
2018,07,02,12,29,17.00
2018,07,02,12,30,17.00
2018,07,02,12,31,17.00
2018,07,02,12,32,16.90
2018,07,02,12,33,16.90
2018,07,02,12,34,17.00
2018,07,02,12,35,17.00
2018,07,02,12,36,17.00
2018,07,02,12,37,17.10
2018,07,02,12,38,17.20
2018,07,02,12,39,17.30
2018,07,02,12,40,17.40
2018,07,02,12,41,17.50
2018,07,02,12,42,17.60
2018,07,02,12,43,17.60
2018,07,02,12,44,17.60
2018,07,02,12,45,17.60
2018,07,02,12,46,17.60
2018,07,02,12,47,17.50
2018,07,02,12,48,17.50
2018,07,02,12,49,17.50
2018,07,02,12,50,17.50
2018,07,02,12,51,17.50
2018,07,02,12,52,17.50
2018,07,02,12,53,17.60
2018,07,02,12,54,17.60
2018,07,02,12,55,17.70
2018,07,02,12,56,17.80
2018,07,02,12,57,17.80
2018,07,02,12,58,17.80
2018,07,02,12,59,17.80
2018,07,02,13,00,17.90
2018,07,02,13,01,17.90
2018,07,02,13,02,17.90
2018,07,02,13,03,18.00
2018,07,02,13,04,18.00
2018,07,02,13,05,18.10
2018,07,02,13,06,18.20
2018,07,02,13,07,18.20
2018,07,02,13,08,18.20
2018,07,02,13,09,18.20
2018,07,02,13,10,18.20
2018,07,02,13,11,18.20
2018,07,02,13,12,18.20
2018,07,02,13,13,18.30
2018,07,02,13,14,18.30
2018,07,02,13,15,18.40
2018,07,02,13,16,18.40
2018,07,02,13,17,18.40
2018,07,02,13,18,18.40
2018,07,02,13,19,18.40
2018,07,02,13,20,18.40
2018,07,02,13,21,18.50
2018,07,02,13,22,18.50
2018,07,02,13,23,18.50
2018,07,02,13,24,18.50
2018,07,02,13,25,18.40
2018,07,02,13,26,18.40
2018,07,02,13,27,18.40
2018,07,02,13,28,18.30
2018,07,02,13,29,18.30
2018,07,02,13,30,18.30
2018,07,02,13,31,18.20
2018,07,02,13,32,18.20
2018,07,02,13,33,18.10
2018,07,02,13,34,18.20
2018,07,02,13,35,18.20
2018,07,02,13,36,18.20
2018,07,02,13,37,18.20
2018,07,02,13,38,18.20
2018,07,02,13,39,18.20
2018,07,02,13,40,18.20
2018,07,02,13,41,18.20
2018,07,02,13,42,18.20
2018,07,02,13,43,18.20
2018,07,02,13,44,18.10
2018,07,02,13,45,18.10
2018,07,02,13,46,18.10
2018,07,02,13,47,18.10
2018,07,02,13,48,18.20
2018,07,02,13,49,18.20
2018,07,02,13,50,18.30
2018,07,02,13,51,18.30
2018,07,02,13,52,18.40
2018,07,02,13,53,18.40
2018,07,02,13,54,18.40
2018,07,02,13,55,18.50
2018,07,02,13,56,18.60
2018,07,02,13,57,18.60
2018,07,02,13,58,18.60
2018,07,02,13,59,18.60
2018,07,02,14,00,18.70
2018,07,02,14,01,18.70
2018,07,02,14,02,18.80
2018,07,02,14,03,18.90
2018,07,02,14,04,18.90
2018,07,02,14,05,19.00
2018,07,02,14,06,19.00
2018,07,02,14,07,19.00
2018,07,02,14,08,19.00
2018,07,02,14,09,19.00
2018,07,02,14,10,18.90
2018,07,02,14,11,19.00
2018,07,02,14,12,18.90
2018,07,02,14,13,18.90
2018,07,02,14,14,18.80
2018,07,02,14,15,18.80
2018,07,02,14,16,18.80
2018,07,02,14,17,18.80
2018,07,02,14,18,18.90
2018,07,02,14,19,18.90
2018,07,02,14,20,18.90
2018,07,02,14,21,19.00
2018,07,02,14,22,19.00
2018,07,02,14,23,19.10
2018,07,02,14,24,19.10
2018,07,02,14,25,19.10
2018,07,02,14,26,19.10
2018,07,02,14,27,19.10
2018,07,02,14,28,19.10
2018,07,02,14,29,19.10
2018,07,02,14,30,19.20
2018,07,02,14,31,19.20
2018,07,02,14,32,19.20
2018,07,02,14,33,19.20
2018,07,02,14,34,19.20
2018,07,02,14,35,19.10
2018,07,02,14,36,19.10
2018,07,02,14,37,19.10
2018,07,02,14,38,19.00
2018,07,02,14,39,19.00
2018,07,02,14,40,19.00
2018,07,02,14,41,19.00
2018,07,02,14,42,19.00
2018,07,02,14,43,19.00
2018,07,02,14,44,19.10
2018,07,02,14,45,19.10
2018,07,02,14,46,19.10
2018,07,02,14,47,19.20
2018,07,02,14,48,19.20
2018,07,02,14,49,19.20
2018,07,02,14,50,19.30
2018,07,02,14,51,19.40
2018,07,02,14,52,19.30
2018,07,02,14,53,19.30
2018,07,02,14,54,19.30
2018,07,02,14,55,19.30
2018,07,02,14,56,19.30
2018,07,02,14,57,19.30
2018,07,02,14,58,19.30
2018,07,02,14,59,19.30
2018,07,02,15,00,19.40
2018,07,02,15,01,19.40
2018,07,02,15,02,19.40
2018,07,02,15,03,19.40
2018,07,02,15,04,19.40
2018,07,02,15,05,19.40
2018,07,02,15,06,19.30
2018,07,02,15,07,19.40
2018,07,02,15,08,19.40
2018,07,02,15,09,19.50
2018,07,02,15,10,19.60
2018,07,02,15,11,19.70
2018,07,02,15,12,19.70
2018,07,02,15,13,19.70
2018,07,02,15,14,19.70
2018,07,02,15,15,19.70
2018,07,02,15,16,19.70
2018,07,02,15,17,19.70
2018,07,02,15,18,19.70
2018,07,02,15,19,19.80
2018,07,02,15,20,19.80
2018,07,02,15,21,19.80
2018,07,02,15,22,19.80
2018,07,02,15,23,19.80
2018,07,02,15,24,19.90
2018,07,02,15,25,19.90
2018,07,02,15,26,19.90
2018,07,02,15,27,19.90
2018,07,02,15,28,20.00
2018,07,02,15,29,20.00
2018,07,02,15,30,20.00
2018,07,02,15,31,19.90
2018,07,02,15,32,19.90
2018,07,02,15,33,19.90
2018,07,02,15,34,19.90
2018,07,02,15,35,20.00
2018,07,02,15,36,20.00
2018,07,02,15,37,20.00
2018,07,02,15,38,20.00
2018,07,02,15,39,20.00
2018,07,02,15,40,19.90
2018,07,02,15,41,19.80
2018,07,02,15,42,19.80
2018,07,02,15,43,19.70
2018,07,02,15,44,19.60
2018,07,02,15,45,19.60
2018,07,02,15,46,19.60
2018,07,02,15,47,19.60
2018,07,02,15,48,19.70
2018,07,02,15,49,19.70
2018,07,02,15,50,19.80
2018,07,02,15,51,19.80
2018,07,02,15,52,19.80
2018,07,02,15,53,19.80
2018,07,02,15,54,19.90
2018,07,02,15,55,19.90
2018,07,02,15,56,19.90
2018,07,02,15,57,19.80
2018,07,02,15,58,19.80
2018,07,02,15,59,19.80
2018,07,02,16,00,19.90
2018,07,02,16,01,20.00
2018,07,02,16,02,20.00
2018,07,02,16,03,20.00
2018,07,02,16,04,20.00
2018,07,02,16,05,20.00
2018,07,02,16,06,20.00
2018,07,02,16,07,20.10
2018,07,02,16,08,20.10
2018,07,02,16,09,20.20
2018,07,02,16,10,20.20
2018,07,02,16,11,20.20
2018,07,02,16,12,20.10
2018,07,02,16,13,20.10
2018,07,02,16,14,20.00
2018,07,02,16,15,20.00
2018,07,02,16,16,20.00
2018,07,02,16,17,20.00
2018,07,02,16,18,20.00
2018,07,02,16,19,20.00
2018,07,02,16,20,20.00
2018,07,02,16,21,20.00
2018,07,02,16,22,20.00
2018,07,02,16,23,20.10
2018,07,02,16,24,20.20
2018,07,02,16,25,20.30
2018,07,02,16,26,20.30
2018,07,02,16,27,20.30
2018,07,02,16,28,20.40
2018,07,02,16,29,20.40
2018,07,02,16,30,20.40
2018,07,02,16,31,20.30
2018,07,02,16,32,20.40
2018,07,02,16,33,20.40
2018,07,02,16,34,20.40
2018,07,02,16,35,20.50
2018,07,02,16,36,20.50
2018,07,02,16,37,20.50
2018,07,02,16,38,20.50
2018,07,02,16,39,20.50
2018,07,02,16,40,20.50
2018,07,02,16,41,20.50
2018,07,02,16,42,20.50
2018,07,02,16,43,20.40
2018,07,02,16,44,20.30
2018,07,02,16,45,20.30
2018,07,02,16,46,20.30
2018,07,02,16,47,20.30
2018,07,02,16,48,20.30
2018,07,02,16,49,20.30
2018,07,02,16,50,20.30
2018,07,02,16,51,20.30
2018,07,02,16,52,20.20
2018,07,02,16,53,20.20
2018,07,02,16,54,20.30
2018,07,02,16,55,20.30
2018,07,02,16,56,20.30
2018,07,02,16,57,20.30
2018,07,02,16,58,20.20
2018,07,02,16,59,20.20
2018,07,02,17,00,20.10
2018,07,02,17,01,20.10
2018,07,02,17,02,20.10
2018,07,02,17,03,20.00
2018,07,02,17,04,19.90
2018,07,02,17,05,19.90
2018,07,02,17,06,19.90
2018,07,02,17,07,19.90
2018,07,02,17,08,19.90
2018,07,02,17,09,19.90
2018,07,02,17,10,20.00
2018,07,02,17,11,20.00
2018,07,02,17,12,20.10
2018,07,02,17,13,20.10
2018,07,02,17,14,20.10
2018,07,02,17,15,20.10
2018,07,02,17,16,20.20
2018,07,02,17,17,20.20
2018,07,02,17,18,20.10
2018,07,02,17,19,20.10
2018,07,02,17,20,20.00
2018,07,02,17,21,20.00
2018,07,02,17,22,20.00
2018,07,02,17,23,20.10
2018,07,02,17,24,20.10
2018,07,02,17,25,20.20
2018,07,02,17,26,20.30
2018,07,02,17,27,20.40